This demonstration page uses our WeatherBlox Daily Observations layout. Learn more.

Left ArrowRight Arrow

34.02893, -84.19858

Hourly Observations for April 29, 2022

Temp ( °F °C ) Dew Point ( °F °C ) Humidity (%) Winds ( mph kmh ) Pressure ( in mb ) Visibility ( mi km ) Precip ( " mm )
12:53 am 00:53 Clear 54 12.2 45 7.2 72 72 Calm 30.08 1019 10 16 0.00 0.00
1:53 am 01:53 Clear 53 11.7 44 6.7 72 72 Calm 30.07 1018 10 16 0.00 0.00
2:53 am 02:53 Clear 53 11.7 45 7.2 74 74 SSE 3 6 30.07 1018 10 16 0.00 0.00
3:53 am 03:53 Clear 53 11.7 45 7.2 74 74 Calm 30.06 1018 10 16 0.00 0.00
4:53 am 04:53 Clear 51 10.6 45 7.2 80 80 Calm 30.07 1018 10 16 0.00 0.00
5:53 am 05:53 Clear 50 10 45 7.2 83 83 Calm 30.09 1019 10 16 0.00 0.00
6:53 am 06:53 Sunny 49 9.4 45 7.2 86 86 Calm 30.12 1020 10 16 0.00 0.00
7:53 am 07:53 Sunny 53 11.7 48 8.9 83 83 Calm 30.14 1021 10 16 0.00 0.00
8:53 am 08:53 Sunny 59 15 50 10 72 72 S 3 6 30.15 1021 10 16 0.00 0.00
9:53 am 09:53 Sunny 67 19.4 54 12.2 63 63 SSW 9 15 30.14 1021 10 16 0.00 0.00
10:53 am 10:53 Sunny 70 21.1 52 11.1 53 53 S 10 17 30.13 1020 10 16 0.00 0.00
11:53 am 11:53 Sunny 73 22.8 50 10 44 44 SSW 10 17 30.12 1020 10 16 0.00 0.00
12:53 pm 12:53 Sunny 75 23.9 50 10 41 41 S 9 15 30.10 1019 10 16 0.00 0.00
1:53 pm 13:53 Sunny 76 24.4 46 7.8 35 35 Calm 30.08 1019 10 16 0.00 0.00
2:53 pm 14:53 Partly Cloudy 75 23.9 46 7.8 36 36 VRB 3 6 30.07 1018 10 16 0.00 0.00
3:53 pm 15:53 Mostly Cloudy 76 24.4 45 7.2 33 33 SE 6 9 30.05 1018 10 16 0.00 0.00
4:53 pm 16:53 Mostly Sunny 76 24.4 46 7.8 35 35 VRB 5 7 30.03 1017 10 16 0.00 0.00
5:53 pm 17:53 Mostly Sunny 76 24.4 45 7.2 33 33 VRB 3 6 30.03 1017 10 16 0.00 0.00
6:53 pm 18:53 Mostly Sunny 75 23.9 45 7.2 34 34 SSE 5 7 30.03 1017 10 16 0.00 0.00
7:53 pm 19:53 Sunny 71 21.7 46 7.8 41 41 SE 3 6 30.03 1017 10 16 0.00 0.00
8:53 pm 20:53 Clear 67 19.4 45 7.2 45 45 Calm 30.04 1017 10 16 0.00 0.00
9:53 pm 21:53 Clear 63 17.2 45 7.2 52 52 Calm 30.04 1017 10 16 0.00 0.00
10:53 pm 22:53 Clear 61 16.1 45 7.2 56 56 Calm 30.05 1018 10 16 0.00 0.00
11:53 pm 23:53 Clear 60 15.6 44 6.7 56 56 Calm 30.04 1017 10 16 0.00 0.00

Powered by AerisWeather